| time (UTC) | temp C | wind direction | speed KPH | gust KPH | rain 1hr cm | rain 24hr cm | rain mn cm | humidity % | barometer mb |
| 20260509063052 | 10 | 0 | 0.0 | 0.0 | 0.00 | 0.03 | 0.00 | 89 | 1012.2 |
| 20260509061546 | 10 | 0 | 0.0 | 0.0 | 0.00 | 0.03 | 0.00 | 88 | 1012.2 |
| 20260509060055 | 10 | 0 | 0.0 | 0.0 | 0.00 | 0.03 | 0.00 | 86 | 1012.3 |
| 20260509054549 | 10 | 0 | 0.0 | 0.0 | 0.00 | 0.03 | 0.00 | 85 | 1012.8 |
| 20260509053119 | 10 | 0 | 0.0 | 0.0 | 0.00 | 0.03 | 0.00 | 83 | 1012.5 |
| 20260509051546 | 10 | 0 | 0.0 | 0.0 | 0.00 | 0.03 | 0.00 | 82 | 1012.8 |
| 20260509050048 | 10 | 0 | 0.0 | 0.0 | 0.00 | 0.03 | 0.00 | 81 | 1012.6 |
| 20260509044547 | 10 | 0 | 0.0 | 0.0 | 0.00 | 0.03 | 0.00 | 81 | 1012.6 |
| 20260509043103 | 10 | 0 | 0.0 | 0.0 | 0.00 | 0.03 | 0.00 | 81 | 1012.6 |
| 20260509041559 | 10 | 0 | 0.0 | 0.0 | 0.00 | 0.03 | 0.00 | 81 | 1012.7 |
| 20260509040056 | 10 | 0 | 0.0 | 0.0 | 0.00 | 0.03 | 0.00 | 80 | 1012.8 |
| 20260509034602 | 11 | 0 | 0.0 | 0.0 | 0.00 | 0.03 | 0.03 | 78 | 1012.8 |
| 20260509033049 | 11 | 0 | 0.0 | 0.0 | 0.00 | 0.03 | 0.03 | 77 | 1012.9 |
| 20260509031602 | 11 | 0 | 0.0 | 0.0 | 0.00 | 0.03 | 0.03 | 78 | 1013.1 |
| 20260509030052 | 11 | 0 | 0.0 | 0.0 | 0.00 | 0.03 | 0.03 | 78 | 1012.9 |
| 20260509024545 | 11 | 0 | 0.0 | 0.0 | 0.00 | 0.03 | 0.03 | 78 | 1012.9 |
| 20260509023041 | 11 | 0 | 0.0 | 0.0 | 0.00 | 0.03 | 0.03 | 78 | 1012.7 |
| 20260509021547 | 11 | 0 | 0.0 | 0.0 | 0.00 | 0.03 | 0.03 | 78 | 1012.6 |
| 20260509020055 | 11 | 0 | 0.0 | 0.0 | 0.00 | 0.03 | 0.03 | 77 | 1012.4 |
| 20260509014544 | 11 | 0 | 0.0 | 0.0 | 0.00 | 0.03 | 0.03 | 76 | 1012.2 |
| 20260509013052 | 11 | 0 | 0.0 | 0.0 | 0.00 | 0.03 | 0.03 | 75 | 1012.0 |
| 20260509011556 | 11 | 0 | 0.0 | 0.0 | 0.00 | 0.03 | 0.03 | 71 | 1011.9 |
| 20260509010055 | 11 | 0 | 0.0 | 0.0 | 0.00 | 0.03 | 0.03 | 72 | 1011.8 |
| 20260509004549 | 11 | 0 | 0.0 | 0.0 | 0.00 | 0.03 | 0.03 | 71 | 1011.6 |
| 20260509003048 | 12 | 0 | 0.0 | 0.0 | 0.00 | 0.03 | 0.03 | 69 | 1011.4 |
| 20260509001547 | 12 | 0 | 0.0 | 0.0 | 0.00 | 0.03 | 0.03 | 67 | 1011.3 |
| 20260509000047 | 12 | 0 | 0.0 | 0.0 | 0.00 | 0.03 | 0.03 | 65 | 1011.4 |
| 20260508234547 | 13 | 0 | 0.0 | 0.0 | 0.00 | 0.03 | 0.03 | 63 | 1011.4 |
| 20260508233044 | 13 | 0 | 0.0 | 0.0 | 0.00 | 0.03 | 0.03 | 61 | 1011.2 |
| 20260508231550 | 13 | 0 | 0.0 | 4.8 | 0.00 | 0.03 | 0.03 | 61 | 1011.2 |
| 20260508230057 | 13 | 0 | 0.0 | 4.8 | 0.00 | 0.03 | 0.03 | 60 | 1011.2 |
| 20260508224546 | 13 | 0 | 0.0 | 6.4 | 0.00 | 0.03 | 0.03 | 60 | 1010.9 |
| 20260508223051 | 13 | 0 | 0.0 | 1.6 | 0.00 | 0.03 | 0.03 | 60 | 1011.0 |
| 20260508221551 | 13 | 0 | 0.0 | 12.9 | 0.00 | 0.03 | 0.03 | 59 | 1011.0 |
| 20260508220050 | 14 | 0 | 0.0 | 14.5 | 0.00 | 0.03 | 0.03 | 60 | 1011.0 |
| 20260508214547 | 14 | 253 | 4.8 | 12.9 | 0.00 | 0.03 | 0.03 | 60 | 1011.0 |
| 20260508213052 | 13 | 246 | 1.6 | 9.7 | 0.00 | 0.03 | 0.03 | 64 | 1011.2 |
| 20260508211546 | 13 | 0 | 1.6 | 8.0 | 0.00 | 0.03 | 0.03 | 63 | 1011.5 |
| 20260508210050 | 13 | 248 | 0.0 | 3.2 | 0.00 | 0.03 | 0.03 | 64 | 1011.4 |
| 20260508204548 | 13 | 0 | 0.0 | 16.1 | 0.00 | 0.03 | 0.03 | 63 | 1011.4 |
| 20260508203047 | 13 | 257 | 3.2 | 16.1 | 0.00 | 0.03 | 0.03 | 62 | 1011.3 |
| 20260508201550 | 13 | 266 | 1.6 | 17.7 | 0.00 | 0.03 | 0.03 | 62 | 1011.1 |
| 20260508200054 | 13 | 0 | 0.0 | 16.1 | 0.00 | 0.03 | 0.03 | 62 | 1011.3 |
| 20260508194554 | 14 | 0 | 0.0 | 6.4 | 0.00 | 0.03 | 0.03 | 63 | 1011.5 |
| 20260508193054 | 13 | 0 | 0.0 | 6.4 | 0.00 | 0.03 | 0.03 | 66 | 1011.7 |
| 20260508191553 | 12 | 0 | 0.0 | 3.2 | 0.00 | 0.03 | 0.03 | 67 | 1011.8 |
| 20260508190053 | 12 | 0 | 1.6 | 19.3 | 0.00 | 0.03 | 0.03 | 65 | 1011.9 |
| 20260508184549 | 13 | 274 | 9.7 | 30.6 | 0.00 | 0.03 | 0.03 | 58 | 1011.9 |
| 20260508183048 | 15 | 263 | 6.4 | 20.9 | 0.00 | 0.03 | 0.03 | 51 | 1011.3 |
| 20260508181548 | 15 | 0 | 3.2 | 20.9 | 0.00 | 0.03 | 0.03 | 53 | 1011.0 |
| 20260508180053 | 13 | 282 | 1.6 | 27.4 | 0.00 | 0.03 | 0.03 | 54 | 1011.1 |
| 20260508174549 | 13 | 254 | 3.2 | 20.9 | 0.00 | 0.03 | 0.03 | 56 | 1011.1 |
| 20260508173047 | 15 | 246 | 3.2 | 22.5 | 0.00 | 0.03 | 0.03 | 52 | 1011.0 |
| 20260508171554 | 15 | 275 | 8.0 | 29.0 | 0.00 | 0.03 | 0.03 | 52 | 1011.1 |
| 20260508170054 | 15 | 261 | 4.8 | 25.7 | 0.00 | 0.03 | 0.03 | 53 | 1011.1 |
| 20260508164550 | 13 | 258 | 16.1 | 33.8 | 0.00 | 0.03 | 0.03 | 51 | 1011.2 |
| 20260508163048 | 13 | 274 | 16.1 | 25.7 | 0.00 | 0.03 | 0.03 | 51 | 1011.4 |
| 20260508161547 | 14 | 279 | 9.7 | 30.6 | 0.00 | 0.03 | 0.03 | 50 | 1011.4 |
| 20260508160054 | 13 | 222 | 9.7 | 22.5 | 0.00 | 0.03 | 0.03 | 52 | 1011.5 |
| 20260508154542 | 13 | 250 | 4.8 | 25.7 | 0.00 | 0.03 | 0.03 | 52 | 1011.9 |
| 20260508153051 | 14 | 272 | 8.0 | 19.3 | 0.00 | 0.03 | 0.03 | 51 | 1011.7 |
| 20260508151548 | 13 | 0 | 0.0 | 14.5 | 0.00 | 0.03 | 0.03 | 53 | 1011.7 |
| 20260508150047 | 13 | 292 | 4.8 | 22.5 | 0.00 | 0.03 | 0.03 | 50 | 1011.6 |
| 20260508144545 | 12 | 275 | 8.0 | 20.9 | 0.00 | 0.03 | 0.03 | 54 | 1011.7 |
| 20260508143049 | 12 | 0 | 0.0 | 17.7 | 0.00 | 0.03 | 0.03 | 56 | 1011.9 |
| 20260508141542 | 12 | 0 | 1.6 | 16.1 | 0.00 | 0.03 | 0.03 | 59 | 1012.2 |
| 20260508140048 | 12 | 219 | 1.6 | 16.1 | 0.00 | 0.03 | 0.03 | 63 | 1012.2 |
| 20260508134548 | 12 | 257 | 1.6 | 14.5 | 0.00 | 0.03 | 0.03 | 63 | 1012.0 |
| 20260508133045 | 11 | 255 | 1.6 | 11.3 | 0.00 | 0.03 | 0.03 | 64 | 1011.9 |
| 20260508131554 | 11 | 0 | 1.6 | 14.5 | 0.00 | 0.03 | 0.03 | 70 | 1012.1 |
| 20260508130106 | 11 | 269 | 3.2 | 14.5 | 0.00 | 0.03 | 0.03 | 70 | 1012.1 |
| 20260508124554 | 10 | 0 | 0.0 | 14.5 | 0.00 | 0.03 | 0.03 | 74 | 1012.1 |
| 20260508123054 | 10 | 0 | 1.6 | 14.5 | 0.00 | 0.03 | 0.03 | 76 | 1012.2 |
| 20260508121557 | 10 | 0 | 3.2 | 17.7 | 0.00 | 0.03 | 0.03 | 78 | 1012.2 |
| 20260508120049 | 8 | 0 | 1.6 | 12.9 | 0.00 | 0.03 | 0.03 | 82 | 1012.2 |
| 20260508114548 | 8 | 0 | 0.0 | 11.3 | 0.00 | 0.03 | 0.03 | 84 | 1012.2 |
| 20260508113108 | 8 | 257 | 0.0 | 9.7 | 0.00 | 0.03 | 0.03 | 86 | 1012.2 |
| 20260508111547 | 7 | 0 | 0.0 | 0.0 | 0.00 | 0.03 | 0.03 | 90 | 1012.0 |
| 20260508110047 | 6 | 0 | 0.0 | 0.0 | 0.00 | 0.03 | 0.03 | 91 | 1011.9 |
| 20260508104617 | 6 | 0 | 0.0 | 0.0 | 0.00 | 0.03 | 0.03 | 92 | 1011.7 |
| 20260508103048 | 6 | 0 | 0.0 | 0.0 | 0.00 | 0.03 | 0.03 | 92 | 1011.6 |
| 20260508101541 | 6 | 0 | 0.0 | 0.0 | 0.00 | 0.03 | 0.03 | 91 | 1011.6 |
| 20260508100049 | 6 | 0 | 0.0 | 0.0 | 0.00 | 0.03 | 0.03 | 91 | 1011.5 |
| 20260508094547 | 6 | 0 | 0.0 | 0.0 | 0.00 | 0.03 | 0.03 | 91 | 1011.3 |
| 20260508093045 | 7 | 0 | 0.0 | 1.6 | 0.00 | 0.03 | 0.03 | 92 | 1011.4 |
| 20260508091549 | 7 | 0 | 0.0 | 0.0 | 0.00 | 0.03 | 0.03 | 91 | 1011.4 |
| 20260508090105 | 7 | 0 | 0.0 | 0.0 | 0.00 | 0.03 | 0.03 | 91 | 1011.2 |
| 20260508084546 | 7 | 0 | 0.0 | 0.0 | 0.00 | 0.05 | 0.03 | 91 | 1010.9 |
| 20260508083104 | 7 | 0 | 0.0 | 0.0 | 0.00 | 0.05 | 0.03 | 91 | 1011.0 |
| 20260508081554 | 7 | 0 | 0.0 | 0.0 | 0.00 | 0.05 | 0.03 | 90 | 1011.0 |
| 20260508080044 | 7 | 0 | 0.0 | 0.0 | 0.00 | 0.05 | 0.03 | 90 | 1010.9 |
| 20260508074544 | 7 | 0 | 0.0 | 0.0 | 0.00 | 0.15 | 0.03 | 89 | 1011.0 |
| 20260508073051 | 7 | 0 | 0.0 | 0.0 | 0.00 | 0.15 | 0.03 | 88 | 1010.9 |
| 20260508071558 | 7 | 0 | 0.0 | 0.0 | 0.03 | 0.15 | 0.03 | 87 | 1011.2 |
| 20260508070135 | 7 | 0 | 0.0 | 0.0 | 0.03 | 0.15 | 0.03 | 86 | 1011.2 |
| 20260508064551 | 7 | 0 | 0.0 | 0.0 | 0.03 | 0.36 | 0.03 | 85 | 1011.5 |